Regional Weather Roundup
Issued by NWS Wakefield, VA

Home | Current Version | Previous Version | Graphics & Text | Print | Product List | Glossary On
Versions: 1 2 3 4 5 6 7 8 9 10 11 12 13 14 15 16 17 18 19 20 21 22 23 24 25 26 27 28 29 30 31 32 33 34 35 36 37 38 39 40 41 42 43 44 45 46 47 48 49 50
000
ASUS41 KAKQ 011815
RWRAKQ

REGIONAL WEATHER ROUNDUP
NATIONAL WEATHER SERVICE WAKEFIELD VA
200 PM EDT SAT AUG 01 2015

Note: "fair" indicates few or no clouds below 12,000 feet with no
significant weather and/or obstructions to visibility. * = Denotes
station may not report precipitation (e.g., rain,snow,etc.),
thunder or fog.

VAZ042-051-052>054-056-011900-
NORTHERN VIRGINIA

CITY           SKY/WX    TMP DP  RH WIND       PRES   REMARKS
WASH NATIONAL  PTSUNNY   89  65  44 NW8       29.87F
DULLES         PTSUNNY   85  65  51 NW10      29.89F
FORT BELVOIR   MOSUNNY   89  64  43 VRB3      29.87
QUANTICO       NOT AVBL
FREDERICKSBRG* SUNNY     91  64  40 S7        29.86F
STAFFORD*      PTSUNNY   86  63  46 CALM      29.92F
WARRENTON      MOSUNNY   89  65  45 CALM      29.89F
CULPEPER*      PTSUNNY   85  65  51 CALM      29.89F
MANASSAS*      MOSUNNY   86  63  45 SE3       29.88F
LEESBURG*      PTSUNNY   86  66  51 NW7G16    29.89F
WINCHESTER     PTSUNNY   86  55  35 W8        29.90F
FRONT ROYAL*   FAIR      84  59  42 W7        29.89F
LURAY*         FAIR      90  55  31 NW8       29.91F
$$

VAZ048-049-060>072-079>083-011900-
CENTRAL AND SOUTH CENTRAL VIRGINIA

CITY           SKY/WX    TMP DP  RH WIND       PRES   REMARKS
RICHMOND       MOSUNNY   91  60  35 SW8       29.88F
CHESTERFIELD*    N/A    N/A N/A N/A SW9       29.90F
PETERSBURG*    SUNNY     90  69  50 S3        29.90F
HANOVER        SUNNY     89  59  36 W6G17     29.90F
TAPPAHANNOCK*  SUNNY     88  60  38 CALM      29.89F
QUINTON*       FAIR      89  62  39 SW5       29.88F
CHARLOTTSVILLE SUNNY     87  63  44 SW6       29.90F
GORDONSVILLE*  FAIR      86  64  48 CALM      29.89F
ORANGE*        SUNNY     88  64  45 SW6       29.91F
LOUISA*        MOSUNNY   90  63  40 W8        29.89F
BUMPASS*       FAIR      89  63  42 W7        29.89F
FARMVILLE*     PTSUNNY   90  57  32 S7        29.89F
CREWE*         FAIR     N/A N/A N/A SW3       29.91F
FORT PICKETT*  FAIR      89  60  36 W5        29.91F
CHASE CITY*    FAIR      89  64  44 W3        29.92F
CLARKSVILLE*   FAIR      88  59  37 W6        29.92F
SOUTH HILL*    SUNNY     87  65  48 SW7       29.98F
LAWRENCEVILLE* FAIR      90  61  37 S3        29.90F
EMPORIA*       SUNNY     90  59  35 CALM      29.91F
$$

VAZ088>098-011900-
SOUTHEAST VIRGINIA

CITY           SKY/WX    TMP DP  RH WIND       PRES   REMARKS
NORFOLK        MOSUNNY   88  60  38 S9        29.88F
VIRGINIA BEACH MOSUNNY   93  63  36 SW12      29.87F
NORFOLK NAVAL  PTSUNNY   89  60  37 W8        29.89F
WEST POINT*    MOSUNNY   90  59  35 SW7       29.89F
SALUDA*        FAIR      88  64  45 SW7       29.88F
NEWPORT NEWS   MOSUNNY   91  63  39 SW7       29.89F
LANGLEY AFB    SUNNY     89  62  40 W7        29.88F
FORT EUSTIS    SUNNY     90  59  35 SW6       29.87
WILLIAMSBURG*  MOSUNNY   93  66  40 SW7       29.89F HX  96
HR EXEC AP*    FAIR      90  64  43 SW7       29.90F
FRANKLIN*      SUNNY     90  59  34 W8        29.89F
WAKEFIELD      MOSUNNY   91  61  36 S8        29.89F
$$

VAZ020-022-025-037-045-011900-
WEST CENTRAL AND SOUTHWEST VIRGINIA

CITY           SKY/WX    TMP DP  RH WIND       PRES   REMARKS
STAUNTON*      CLOUDY    88  54  31 W7        29.95F
WAYNESBORO*    FAIR      82  61  49 W7        29.95F
HOT SPRINGS VA PTSUNNY   74  55  51 W12       30.08S
LYNCHBURG      SUNNY     85  59  41 SW8       29.95F
DANVILLE       PTSUNNY   88  62  41 VRB5      29.93F
SOUTH BOSTON*  FAIR      86  61  42 SW3       29.92F
MARTINSVILLE   MOSUNNY   89  54  30 NW6       29.98F
ROANOKE        MOSUNNY   86  53  32 W12G20    29.98F
BLACKSBURG     SUNNY     82  57  42 NW10      30.05F
DUBLIN*          N/A     82  53  36 NW5       30.04F
MARION*        PTSUNNY   79  57  47 W14       30.09F
HILLSVILLE*    SUNNY     78  52  40 NW12      30.06S
RICHLANDS*     MOCLDY    77  59  54 NW6       30.08F
WISE*          PTSUNNY   81  52  36 W7        30.10F
ABINGDON*      PTSUNNY   81  54  38 NW6       30.06F
$$

MDZ021>025-VAZ099-100-011900-
SOUTHERN MARYLAND AND THE DELMARVA PENINSULA

CITY           SKY/WX    TMP DP  RH WIND       PRES   REMARKS
PATUXENT RIVER MOSUNNY   88  61  40 SW10      29.87F
BAY BRIDGE APT   N/A     84  61  45 W5        29.87F
LEONARDTOWN    SUNNY     88  59  37 SW7       29.89F
DOVER          MOSUNNY   88  69  54 W10       29.84F
GEORGETOWN     MOSUNNY   90  62  39 SW10      29.86F
EASTON         MOSUNNY   88  66  48 NW10      29.90F
CAMBRIDGE      SUNNY     90  63  40 CALM      29.86F
SALISBURY      SUNNY     89  64  43 SW10      29.86F
OCEAN CITY     MOSUNNY   89  71  55 S12G20    29.85F HX  95
WALLOPS ISLAND SUNNY     89  69  51 W8        29.88F
ACCOMACK*      SUNNY     88  82  84 W9        29.88F HX 108
$$

NCZ012>017-030>032-011900-
NORTH CENTRAL AND EASTERN NORTH CAROLINA

CITY           SKY/WX    TMP DP  RH WIND       PRES   REMARKS
ROANOKE RAPIDS FAIR      90  59  35 NE3       29.90F
RALEIGH        MOSUNNY   90  58  33 W5        29.93F
ELIZABETH CITY MOSUNNY   89  70  53 E10       29.89F
AHOSKIE*       MOSUNNY   89  58  34 SW3       29.89F
EDENTON*         N/A     91  59  34 S5        29.89F
CURRITUCK*     MOSUNNY   90  59  35 CALM      29.89F
KILL DEVIL HLS SUNNY     90  72  56 S7        29.89F HX  97
MANTEO         SUNNY     84  73  69 S12       29.90F
CAPE HATTERAS  PTSUNNY   83  74  74 S8        29.92F
TARBORO*         N/A     93  58  30 SE3       29.90F
GOLDSBORO      SUNNY     92  68  45 NE6       29.89F HX  96
WASHINGTON     SUNNY     89  65  45 W3        29.90F
GREENVILLE     SUNNY     91  59  33 N7        29.92F
NEW BERN       MOSUNNY   92  68  45 VRB5      29.90F HX  96
WILMINGTON     MOSUNNY   89  72  56 VRB5      29.92F HX  96
$$

VAZ048-011900-
ELSEWHERE

CITY           SKY/WX    TMP DP  RH WIND       PRES   REMARKS
HARRISBURG PA  MOSUNNY   87  53  31 NW10      29.85F
BALTIMORE      PTSUNNY   88  60  38 W9        29.86F
ANNAPOLIS      PTSUNNY   85  59  41 NW6       29.86F
ANDREWS AFB    MOSUNNY   88  63  42 SW10      29.87F
PHILADELPHIA   PTSUNNY   88  55  32 W13G23    29.84F
HENDERSON NC   SUNNY     88  51  27 CALM      29.94S
GREENSBORO     MOSUNNY   88  54  31 CALM      29.95F
ROCKY MOUNT    SUNNY     93  56  28 CALM      29.90F
$$

VAZ100-011900-
MARINE

STATION/POSITION TIME  TEMP    WIND        PRES    WAVE   SWELL
                       AIR SEA DIR/SP/G            HT/PER HT/PER
                 (UTC) (F)     (DEG/KT/KT) (MB)    (FT/S) (FT/S)
BRANDYWINE LGT   1700   82 76  180/  4/  4 1011.6F
CAPE MAY NJ      1700   83 76  240/  5/  5 1011.1F
LEWES DE         1700   88 73  250/  5/ 13 1011.1F
15NM E FENWICK I 1750   80 80  190/ 14/ 16 1011.4F   3/ 8   2/ 8
OCEAN-CITY-INLET 1700   80 73  200/ 10/ 13 1010.8F
WACHAPREAGUE VA  1700   88 85  220/  7/ 11 1012.3F
GOOSES REEF MD   1800   84 85  120/  4/  4 1012.4F
COVE POINT MD    1700   84      90/  2/  5 1012.5F
SOLOMONS ISLAND  1700      83                N/A
BISHOPS HEAD MD  1700   82 84  230/  7/  8 1011.2F
PINEY POINT MD   1736          150/  4/  5   N/A
POTOMAC MD       1800   85 85  300/  2/  4 1010.4F   0
CAMBRIDGE MD     1700   85 84  290/  6/  9 1010.9F
LEWISETTA VA     1700   85 83  270/  7/  8 1011.7F
RAPPAHANNOCK LGT 1700          200/ 12/ 13 1012.8F
STINGRAY PT      1800   87 85  240/  6/  8 1011.9F   1
YORK RVR RNG VA  1700   88     200/  1/  2 1012.0F
YORKTOWN VA      1700   87 83  240/  9/ 11 1012.1F
JAMESTOWN VA     1800   86 88  220/  4/  6   N/A
DOMINION TERM VA 1700   85     240/  5/  6 1012.6F
KIPTOPEKE VA     1700      81  230/  7/ 10   N/A
CHES BAY BRIDGE  1700   83 76  290/  5/  6 1012.3F
CAPE HENRY VA    1700   83     120/  9/ 12   N/A
CHESAPEAKE LGHT  1700   81     170/ 11/ 11 1013.5F
WILLOUBY STN VA  1700   84     270/  7/  7 1013.5F
CAPE HENRY BUOY  1728      82                N/A     2/ 8   2/12
1ST LANDING BUOY 1800      82              1011.8F   1/ 3
CAPE CHARLES BUO 1726      81                N/A     2/ 8   2/ 8
OFFSHORE WE BUOY 1711      82                N/A     3/ 7   2/ 7
64NM E OF VA BCH 1750   81 81  210/ 14/ 16 1012.7F   3/ 8   3/ 8
DUCK PIER NC     1700   81 79  130/ 11/ 13 1012.4F
44100 DUCK FRF   1724      81                N/A     3/ 7   2/11
44056 DUCK FRF   1711      78                N/A     2/ 8
OREGON INLET NC  1700   80 81  190/ 13/ 14 1013.4F
HATTERAS NC      1700   84 80  190/  4/  7 1013.3F
DIAMOND SHLS NC  1750   79 85  170/ 17/ 21 1013.0F   3/ 8   2/ 8
CAPE LOOKOUT NC  1800   83     240/ 10/ 12 1012.6F
$$


USA.gov is the U.S. government's official web portal to all federal, state and local government web resources and services.